Regional Weather Roundup
Issued by NWS

Home | Current Version | Previous Version | Graphics & Text | Print | Product List | Glossary On
Versions: 1 2 3 4 5 6 7 8 9 10 11 12 13 14 15 16 17 18 19 20 21 22 23 24 25 26 27 28 29 30 31 32 33 34 35 36 37 38 39 40 41 42 43 44 45 46 47 48 49 50
000
ASUS43 KMKX 231700
RWRWI

WISCONSIN REGIONAL WEATHER ROUNDUP
NATIONAL WEATHER SERVICE MILWAUKEE/SULLIVAN WI
1200 PM CDT SUN JUL 23 2017

NOTE: "FAIR" INDICATES FEW OR NO CLOUDS BELOW 12,000 FEET WITH NO
SIGNIFICANT WEATHER AND/OR OBSTRUCTIONS TO VISIBILITY.

WIZ001-002-006>008-014>016-023>028-231800-
NORTHWEST WISCONSIN

CITY           SKY/WX    TMP DP  RH WIND       PRES   REMARKS
SUPERIOR ARPT  NOT AVBL
ASHLAND        LGT RAIN  59  58  96 N9        29.95R FOG
HAYWARD        CLOUDY    63  57  81 NE12      29.94R
SIREN          CLOUDY    61  56  82 N8        29.96R
CUMBERLAND     CLOUDY    61  55  82 N10       29.94R
RICE LAKE      CLOUDY    64  57  78 NW5       29.94R
CHETEK         CLOUDY    67  60  77 N9        29.92R
LADYSMITH      CLOUDY    65  58  77 N8        29.93R
EAU CLAIRE     NOT AVBL
MENOMONIE      MOSUNNY   74  60  59 NW6       29.89S
NEW RICHMOND   MOSUNNY   70  58  64 N12G17    29.92R
OSCEOLA        MOSUNNY   72  59  64 N8        29.95R
$$

WIZ003>005-009-010-017-018-231800-
NORTH CENTRAL WISCONSIN

CITY           SKY/WX    TMP DP  RH WIND       PRES   REMARKS
MANITOWISH WTR CLOUDY    60  60 100 N8        29.91R
ARBOR VITAE    CLOUDY    64  60  87 N7        29.89R
WOODRUFF       CLOUDY    64  60  87 N7        29.89R
RHINELANDER    CLOUDY    67  61  81 N6        29.88S
EAGLE RIVER    CLOUDY    65  61  87 NW5       29.88R
LAND O LAKES   CLOUDY    61  59  95 N8        29.91R
PHILLIPS       CLOUDY    62  59  91 NW3       29.90R
TOMAHAWK         N/A     70  60  69 N8        29.88R
MEDFORD        MOSUNNY   72  60  65 N13       29.87R
MERRILL        MOSUNNY   75  60  60 N9        29.86R
$$

WIZ029-030-035-036-043>047-231800-
CENTRAL WISCONSIN

CITY           SKY/WX    TMP DP  RH WIND       PRES   REMARKS
WAUSAU         SUNNY     78  57  48 NW9       29.83R
MOSINEE        PTSUNNY   79  57  47 NW7G18    29.85R HX  80
MARSHFIELD     MOSUNNY   77  57  50 NW13G21   29.85R
STEVENS POINT  MOSUNNY   76  59  56 NW5       29.83S
WAUPACA        SUNNY     82  58  44 W9        29.81S HX  82
WAUTOMA        MOSUNNY   80  62  54 NW13      29.82F HX  81
WISC RAPIDS    SUNNY     81  59  47 NW16      29.85R HX  81
CAMP DOUGLAS   NOT AVBL
$$

WIZ011>013-019>022-031-037>040-048>050-231800-
NORTHEAST WISCONSIN

CITY           SKY/WX    TMP DP  RH WIND       PRES   REMARKS
ANTIGO         PTSUNNY   73  60  65 N12       29.85R
SHAWANO        PTSUNNY   79  65  62 N8        29.80S HX  81
OCONTO         PTSUNNY   77  65  65 NW6       29.79R
STURGEON BAY   LGT RAIN  69  66  90 N10       29.81R
GREEN BAY      CLOUDY    77  69  76 N9        29.80S
MANITOWOC      NOT AVBL
APPLETON       PTSUNNY   75  57  53 W9        29.80R
CLINTONVILLE   PTSUNNY   81  61  50 NW9       29.80S HX  81
OSHKOSH        CLOUDY    77  64  64 W7        29.81R
$$

WIZ032>034-041-042-053>061-231800-
SOUTHWEST WISCONSIN

CITY           SKY/WX    TMP DP  RH WIND       PRES   REMARKS
LA CROSSE      MOSUNNY   81  64  56 NW14      29.85R HX  82
SPARTA         SUNNY     77  60  56 NW9       29.85S
VIROQUA        CLOUDY    77  61  56 NW8       29.87R
BOSCOBEL       PTSUNNY   84  65  52 NW6       29.83R HX  86
PRAIRIE DU CHI MOSUNNY   82  66  58 W6        29.82S HX  83
PLATTEVILLE    MOSUNNY   81  74  81 W9        29.84F HX  86
$$

WIZ056-057-062-063-064-067-068-231800-
SOUTH CENTRAL WISCONSIN

CITY           SKY/WX    TMP DP  RH WIND       PRES   REMARKS
REEDSBURG      PTSUNNY   77  61  57 CALM      29.84S
BARABOO/DELLS  PTSUNNY   77  61  58 NW3       29.84S
LONE ROCK      NOT AVBL
MINERAL POINT  SUNNY     82  73  74 W10       29.84F HX  88
MADISON        PTSUNNY   79  67  66 N9        29.82S HX  81
MIDDLETON      PTSUNNY   80  66  62 W3        29.84S HX  82
WATERTOWN      CLOUDY    78  69  75 W6        29.82S
MONROE         MOSUNNY   81  64  57 W9        29.84S HX  82
JANESVILLE     PTSUNNY   84  66  54 SW8       29.82S HX  86
$$

WIZ051-052-058>065-066-070>072-231800-
SOUTHEAST WISCONSIN

CITY           SKY/WX    TMP DP  RH WIND       PRES   REMARKS
MILWAUKEE      CLOUDY    85  63  47 NW8       29.79F HX  86
WAUKESHA       PTSUNNY   77  64  65 W10       29.83S
MILWAUKEE/TIMM PTSUNNY   81  59  47 NW9       29.81S HX  81
RACINE         MOSUNNY   83  69  62 W8        29.81S HX  86
KENOSHA        MOSUNNY   86  63  45 NW9       29.80F HX  87
FOND DU LAC    CLOUDY    77  63  61 NW8       29.82S
SHEBOYGAN      CLOUDY    76  67  73 NW8       29.80R
WEST BEND      CLOUDY    77  64  65 W7        29.81F
JUNEAU         CLOUDY    76  64  67 NW3       29.84S
$$

LSZ147-162-231800-
LAKE SUPERIOR

STATION/POSITION TIME  TEMP    WIND        PRES    WAVE
                       AIR SEA DIR/SP/G            HT/PER
                 (UTC) (F)     (DEG/KT/KT) (MB)    (FT/S)
W MID LAKE BUOY  1550   51 47   20/ 10/ 14 1013.2R   2/ 5
DEVILS ISLAND    1600   57     360/  8/ 10 1013.9R
PORT WING        1540   57     340/  5/  5 1013.9
SAXON HARBOR     1630   57     360/  6/  8 1013.2R
$$

LMZ867-665-643>646-231800-
LAKE MICHIGAN

STATION/POSITION TIME  TEMP    WIND        PRES    WAVE
                       AIR SEA DIR/SP/G            HT/PER
                 (UTC) (F)     (DEG/KT/KT) (MB)    (FT/S)
CHAMBERS ISLAND  1640   73     330/  5/  8 1008.5R
S GREEN BAY BUOY 1630   71 74  170/  4/  6 1008.8R
N MID LAKE BUOY  1550   67 68  310/ 10/ 12 1008.4R   1
NORTHPORT PIER   1640   69     320/ 12/ 14 1008.8R
KEWAUNEE LAKESHO 1630   75     360/  2/  7 1008.3R
SHEBOYGAN LAKESH 1600   77     290/  9/ 12 1008.1R
PORT WASHINGTON  1640   81     290/  5/ 10 1009.8R
ATWATER BUOY     1509   78 69  300/  6/  8 1009.1R
MILWAUKEE LAKESH 1650   82     290/ 10/ 13   N/A
S MID LAKE BUOY  1550   72 71  240/ 10/ 10 1008.8R   0
KENOSHA   LAKESH 1600   78     160/  1/  6 1009.1
$$

TC  - TEMPERATURE IN CELSIUS
VSB - VISIBILITY IN STATUTE MILES
WCI - WIND CHILL INDEX
HX  - HEAT INDEX





USA.gov is the U.S. government's official web portal to all federal, state and local government web resources and services.